Weather History for KMWC - October, 2013

Change the Weather History Date:

Monday, October 7, 2013

  Actual Average Record
Temperature  
Mean Temperature 54 °F -  
Max Temperature 64 °F 64 °F 86 °F (1993)
Min Temperature 44 °F 43 °F 28 °F (1953)
Degree Days  
Heating Degree Days 11    
Growing Degree Days 4 (Base 50)    
Moisture  
Dew Point 42 °F    
Average Humidity 76    
Maximum Humidity 93    
Minimum Humidity 34    
Precipitation  
Precipitation 0.01 in - - ()
Sea Level Pressure  
Sea Level Pressure 29.87 in    
Wind  
Wind Speed 8 mph (West)    
Max Wind Speed 15 mph    
Max Gust Speed 20 mph    
Visibility 10 miles    
Events Rain    
Averages and records for this station are not official NWS values.
T = Trace of Precipitation, MM = Missing Value Source: NWS Daily Summary

Daily Weather History Graph

Daily Weather History Graph

Search for Another Location

Airport or City:

Trip Planner

Search our weather history database for the weather conditions in past years. The results will help you decide how hot, cold, wet, or windy it might be!

Date:

Astronomy

Oct. 07, 2013 Rise Set
Actual Time 6:56 AM CDT 6:22 PM CDT
Civil Twilight 6:28 AM CDT 6:50 PM CDT
Nautical Twilight 5:55 AM CDT 7:23 PM CDT
Astronomical Twilight 5:22 AM CDT 7:56 PM CDT
Moon 9:51 AM CDT (10/7) 8:01 PM CDT (10/7)
Length of Visible Light 12h 22m
Length of Day
11h 25m
Waxing Crescent, 9% of the Moon is Illuminated
Oct 7
Waxing Crescent
Oct 11
First Quarter
Oct 18
Full
Oct 26
Last Quarter
Nov 3
New

Hourly Weather History & Observations

Time (CDT) Temp. Windchill Dew Point Humidity Pressure Visibility Wind Dir Wind Speed Gust Speed Precip Events Conditions
12:15 AM 46.4 °F 41.9 °F 41.0 °F 81% 29.73 in 10.0 mi West 9.2 mph - N/A   Overcast
12:35 AM 46.4 °F 41.9 °F 41.0 °F 81% 29.73 in 10.0 mi WSW 9.2 mph - N/A   Overcast
12:55 AM 46.4 °F 41.9 °F 41.0 °F 81% 29.72 in 10.0 mi WSW 9.2 mph - N/A   Overcast
1:15 AM 46.4 °F 43.5 °F 41.0 °F 81% 29.71 in 10.0 mi WSW 5.8 mph - N/A   Light Drizzle
1:35 AM 46.4 °F 41.9 °F 41.0 °F 81% 29.72 in 10.0 mi West 9.2 mph - N/A   Overcast
1:55 AM 46.4 °F 41.5 °F 41.0 °F 81% 29.72 in 10.0 mi WSW 10.4 mph - N/A   Overcast
2:15 AM 46.4 °F 42.9 °F 41.0 °F 81% 29.72 in 10.0 mi West 6.9 mph - N/A   Overcast
2:55 AM 46.4 °F 41.1 °F 41.0 °F 81% 29.73 in 10.0 mi West 11.5 mph - N/A   Overcast
3:15 AM 46.4 °F 41.5 °F 41.0 °F 81% 29.72 in 10.0 mi West 10.4 mph - N/A   Overcast
3:35 AM 46.4 °F 42.4 °F 41.0 °F 81% 29.72 in 10.0 mi West 8.1 mph - N/A   Overcast
3:55 AM 46.4 °F 41.9 °F 41.0 °F 81% 29.72 in 10.0 mi WSW 9.2 mph - N/A   Overcast
4:15 AM 46.4 °F 42.4 °F 41.0 °F 81% 29.73 in 10.0 mi WSW 8.1 mph - N/A   Mostly Cloudy
4:35 AM 46.4 °F 41.9 °F 41.0 °F 81% 29.73 in 10.0 mi West 9.2 mph - N/A   Mostly Cloudy
4:55 AM 46.4 °F 41.5 °F 41.0 °F 81% 29.74 in 10.0 mi West 10.4 mph - N/A   Overcast
5:15 AM 46.4 °F 41.5 °F 41.0 °F 81% 29.75 in 10.0 mi West 10.4 mph - N/A   Drizzle
5:35 AM 44.6 °F 39.7 °F 42.8 °F 93% 29.75 in 10.0 mi West 9.2 mph - 0.01 in Rain Light Rain
5:55 AM 44.6 °F 40.2 °F 42.8 °F 93% 29.76 in 10.0 mi West 8.1 mph - 0.01 in   Light Drizzle
6:15 AM 46.4 °F 41.1 °F 42.8 °F 87% 29.76 in 10.0 mi West 11.5 mph - N/A   Overcast
6:35 AM 46.4 °F 42.4 °F 42.8 °F 87% 29.77 in 7.0 mi West 8.1 mph - N/A   Overcast
6:45 AM 46.4 °F 42.4 °F 44.6 °F 93% 29.77 in 4.0 mi West 8.1 mph - N/A   Overcast
6:55 AM 46.4 °F 41.1 °F 44.6 °F 93% 29.78 in 7.0 mi West 11.5 mph - N/A   Overcast
7:45 AM 48.2 °F - 44.6 °F 87% 29.80 in 10.0 mi WNW 11.5 mph 17.3 mph N/A   Overcast
8:45 AM 51.8 °F - 44.6 °F 76% 29.83 in 10.0 mi WNW 15.0 mph 19.6 mph N/A   Scattered Clouds
9:45 AM 53.6 °F - 42.8 °F 67% 29.86 in 10.0 mi WNW 13.8 mph 19.6 mph N/A   Scattered Clouds
10:45 AM 55.4 °F - 42.8 °F 63% 29.88 in 10.0 mi NW 11.5 mph 18.4 mph N/A   Scattered Clouds
11:45 AM 57.2 °F - 44.6 °F 63% 29.91 in 10.0 mi West 13.8 mph - N/A   Scattered Clouds
12:45 PM 59.0 °F - 42.8 °F 55% 29.92 in 10.0 mi West 11.5 mph - N/A   Clear
1:45 PM 60.8 °F - 42.8 °F 52% 29.93 in 10.0 mi West 11.5 mph - N/A   Scattered Clouds
2:45 PM 62.6 °F - 39.2 °F 42% 29.94 in 10.0 mi West 11.5 mph 19.6 mph N/A   Scattered Clouds
3:45 PM 64.4 °F - 41.0 °F 42% 29.95 in 10.0 mi West 9.2 mph - N/A   Scattered Clouds
4:45 PM 64.4 °F - 35.6 °F 34% 29.96 in 10.0 mi WNW 11.5 mph - N/A   Scattered Clouds
5:45 PM 62.6 °F - 39.2 °F 42% 29.97 in 10.0 mi WNW 5.8 mph - N/A   Clear
6:45 PM 57.2 °F - 41.0 °F 55% 29.99 in 10.0 mi Calm Calm - N/A   Clear
7:45 PM 53.6 °F - 42.8 °F 67% 30.01 in 10.0 mi Calm Calm - N/A   Clear
8:45 PM 51.8 °F - 44.6 °F 76% 30.08 in 10.0 mi Calm Calm - N/A   Clear
9:15 PM 48.2 °F - 42.8 °F 82% 30.06 in 10.0 mi Calm Calm - N/A   Clear
9:35 PM 46.4 °F - 42.8 °F 87% 30.06 in 10.0 mi Calm Calm - N/A   Clear
9:55 PM 46.4 °F - 42.8 °F 87% 30.07 in 10.0 mi Calm Calm - N/A   Clear
10:15 PM 46.4 °F - 42.8 °F 87% 30.08 in 10.0 mi Calm Calm - N/A   Clear
10:35 PM 46.4 °F - 42.8 °F 87% 30.08 in 10.0 mi Calm Calm - N/A   Clear
10:55 PM 46.4 °F - 42.8 °F 87% 30.09 in 10.0 mi Calm Calm - N/A   Clear
11:15 PM 46.4 °F - 42.8 °F 87% 30.09 in 10.0 mi Calm Calm - N/A   Clear
11:35 PM 44.6 °F - 42.8 °F 93% 30.09 in 10.0 mi Calm Calm - N/A   Clear
11:55 PM 44.6 °F - 41.0 °F 87% 30.10 in 10.0 mi Calm Calm - N/A   Clear